This is the latest recevied weather packets stored in our database for station/object K8RRT. If no packets are shown the sender has not sent any weather packets the latest 10 day(s).
| Time | Temp. | Humidity | Pressure | Rain* | Wind** | Luminosity | Snow |
|---|---|---|---|---|---|---|---|
| 1777723829 | 3.33° C | 99% | 1013.1 hPa | 0 mm | - | 98 W/m² | - |
| 1777723525 | 2.78° C | 99% | 1013.3 hPa | 0 mm | - | 77 W/m² | - |
| 1777723222 | 2.78° C | 99% | 1012.9 hPa | 0 mm | - | 95 W/m² | - |
| 1777722920 | 2.78° C | 99% | 1012.8 hPa | 0 mm | - | 77 W/m² | - |
| 1777722616 | 2.78° C | 99% | 1012.7 hPa | 0 mm | - | 76 W/m² | - |
| 1777722313 | 2.22° C | 99% | 1012.9 hPa | 0 mm | - | 73 W/m² | - |
| 1777722010 | 2.22° C | 99% | 1012.9 hPa | 0 mm | - | 70 W/m² | - |
| 1777721707 | 1.67° C | 99% | 1013 hPa | 0 mm | - | 65 W/m² | - |
| 1777721406 | 1.67° C | 99% | 1013 hPa | 0 mm | - | 52 W/m² | - |
| 1777721103 | 1.67° C | 99% | 1013.1 hPa | 0 mm | - | 32 W/m² | - |
| 1777720800 | 1.11° C | 99% | 1013 hPa | 0 mm | - | 36 W/m² | - |
| 1777720497 | 1.11° C | 99% | 1012.8 hPa | 0 mm | - | 37 W/m² | - |
| 1777720195 | 1.11° C | 99% | 1012.8 hPa | 0 mm | - | 43 W/m² | - |
| 1777719892 | 1.11° C | 99% | 1012.9 hPa | 0 mm | - | 30 W/m² | - |
| 1777719589 | 1.11° C | 99% | 1012.8 hPa | 0 mm | - | 24 W/m² | - |
| 1777719287 | 1.11° C | 99% | 1012.7 hPa | 0 mm | - | 16 W/m² | - |
| 1777718985 | 1.11° C | 99% | 1012.6 hPa | 0 mm | - | 12 W/m² | - |
| 1777718681 | 0.56° C | 99% | 1012.6 hPa | 0 mm | - | 8 W/m² | - |
| 1777718379 | 0.56° C | 99% | 1012.6 hPa | 0 mm | - | 3 W/m² | - |
| 1777718076 | 0.56° C | 99% | 1012.5 hPa | 0 mm | - | 2 W/m² | - |
| 1777717773 | 1.11° C | 99% | 1012.4 hPa | 0 mm | - | 0 W/m² | - |
| 1777717470 | 1.11° C | 99% | 1012.5 hPa | 0 mm | - | 0 W/m² | - |
| 1777717167 | 0.56° C | 99% | 1012.7 hPa | 0 mm | - | 0 W/m² | - |
| 1777716865 | 1.11° C | 99% | 1012.8 hPa | 0 mm | - | 0 W/m² | - |
| 1777716563 | 1.11° C | 99% | 1013 hPa | 0 mm | - | 0 W/m² | - |
* Rain latest hour (hover to see other rain measurements)
** Current wind speed in m/s (hover to see current wind gust speed)